Time,TemperatureF,DewpointF,PressureIn,WindDirection,WindDirectionDegrees,WindSpeedMPH,WindSpeedGustMPH,Humidity,HourlyPrecipIn,Conditions,Clouds,dailyrainin,SoftwareType,DateUTC
2013-03-26 00:03:00,33.0,-99.9,-100.00,West,277,5.0,9.0,-999,0.00,,,0.03,,2013-03-26 05:03:00,
2013-03-26 00:13:00,33.0,-99.9,-100.00,West,277,5.0,9.0,-999,0.00,,,0.03,,2013-03-26 05:13:00,
2013-03-26 00:23:00,33.0,-99.9,-100.00,West,277,5.0,9.0,-999,0.00,,,0.03,,2013-03-26 05:23:00,
2013-03-26 00:33:00,33.0,-99.9,-100.00,WNW,296,5.0,12.0,-999,0.00,,,0.03,,2013-03-26 05:33:00,
2013-03-26 00:43:00,33.0,-99.9,-100.00,WNW,296,5.0,12.0,-999,0.00,,,0.03,,2013-03-26 05:43:00,
2013-03-26 00:52:00,33.0,-99.9,-100.00,WNW,296,5.0,12.0,-999,0.00,,,0.03,,2013-03-26 05:52:00,
2013-03-26 01:02:00,32.0,-99.9,-100.00,WNW,298,5.0,12.0,-999,0.00,,,0.03,,2013-03-26 06:02:00,
2013-03-26 01:12:00,32.0,-99.9,-100.00,WNW,298,5.0,12.0,-999,0.00,,,0.03,,2013-03-26 06:12:00,
2013-03-26 01:22:00,32.0,-99.9,-100.00,WNW,298,5.0,12.0,-999,0.00,,,0.03,,2013-03-26 06:22:00,
2013-03-26 01:32:00,33.0,-99.9,-100.00,WNW,301,6.0,11.0,-999,0.00,,,0.03,,2013-03-26 06:32:00,
2013-03-26 01:43:00,33.0,-99.9,-100.00,WNW,301,6.0,11.0,-999,0.00,,,0.03,,2013-03-26 06:43:00,
2013-03-26 01:53:00,33.0,-99.9,-100.00,WNW,301,6.0,11.0,-999,0.00,,,0.03,,2013-03-26 06:53:00,
2013-03-26 02:03:00,32.0,-99.9,-100.00,WNW,285,8.0,13.0,-999,0.00,,,0.03,,2013-03-26 07:03:00,
2013-03-26 02:12:00,32.0,-99.9,-100.00,WNW,285,8.0,13.0,-999,0.00,,,0.03,,2013-03-26 07:12:00,
2013-03-26 02:22:00,32.0,-99.9,-100.00,WNW,285,8.0,13.0,-999,0.00,,,0.03,,2013-03-26 07:22:00,
2013-03-26 02:33:00,32.0,-99.9,-100.00,WNW,285,8.0,12.0,-999,0.00,,,0.03,,2013-03-26 07:33:00,
2013-03-26 02:43:00,32.0,-99.9,-100.00,WNW,285,8.0,12.0,-999,0.00,,,0.03,,2013-03-26 07:43:00,
2013-03-26 02:53:00,32.0,-99.9,-100.00,WNW,285,8.0,12.0,-999,0.00,,,0.03,,2013-03-26 07:53:00,
2013-03-26 03:02:00,32.0,-99.9,-100.00,West,281,6.0,12.0,-999,0.00,,,0.03,,2013-03-26 08:02:00,
2013-03-26 03:13:00,32.0,-99.9,-100.00,West,281,6.0,12.0,-999,0.00,,,0.03,,2013-03-26 08:13:00,
2013-03-26 03:22:00,32.0,-99.9,-100.00,West,281,6.0,12.0,-999,0.00,,,0.03,,2013-03-26 08:22:00,
2013-03-26 03:32:00,32.0,-99.9,-100.00,WNW,290,5.0,13.0,-999,0.00,,,0.03,,2013-03-26 08:32:00,
2013-03-26 03:42:00,32.0,-99.9,-100.00,WNW,290,5.0,13.0,-999,0.00,,,0.03,,2013-03-26 08:42:00,
2013-03-26 03:52:00,32.0,-99.9,-100.00,WNW,290,5.0,13.0,-999,0.00,,,0.03,,2013-03-26 08:52:00,
2013-03-26 04:02:00,31.0,-99.9,-100.00,WNW,291,5.0,9.0,-999,0.00,,,0.03,,2013-03-26 09:02:00,
2013-03-26 04:12:00,31.0,-99.9,-100.00,WNW,291,5.0,9.0,-999,0.00,,,0.03,,2013-03-26 09:12:00,
2013-03-26 04:22:00,31.0,-99.9,-100.00,WNW,291,5.0,9.0,-999,0.00,,,0.03,,2013-03-26 09:22:00,
2013-03-26 04:33:00,31.0,-99.9,-100.00,WNW,293,6.0,11.0,-999,0.00,,,0.03,,2013-03-26 09:33:00,
2013-03-26 04:43:00,31.0,-99.9,-100.00,WNW,293,6.0,11.0,-999,0.00,,,0.03,,2013-03-26 09:43:00,
2013-03-26 04:52:00,31.0,-99.9,-100.00,WNW,293,6.0,11.0,-999,0.00,,,0.03,,2013-03-26 09:52:00,
2013-03-26 05:03:00,30.0,-99.9,-100.00,WNW,296,7.0,11.0,-999,0.00,,,0.03,,2013-03-26 10:03:00,
2013-03-26 05:12:00,30.0,-99.9,-100.00,WNW,296,7.0,11.0,-999,0.00,,,0.03,,2013-03-26 10:12:00,
2013-03-26 05:23:00,30.0,-99.9,-100.00,WNW,296,7.0,11.0,-999,0.00,,,0.03,,2013-03-26 10:23:00,
2013-03-26 05:33:00,29.0,-99.9,-100.00,WNW,298,8.0,12.0,-999,0.00,,,0.03,,2013-03-26 10:33:00,
2013-03-26 05:43:00,29.0,-99.9,-100.00,WNW,298,8.0,12.0,-999,0.00,,,0.03,,2013-03-26 10:43:00,
2013-03-26 05:53:00,29.0,-99.9,-100.00,WNW,298,8.0,12.0,-999,0.00,,,0.03,,2013-03-26 10:53:00,
2013-03-26 06:03:00,29.0,-99.9,-100.00,WNW,297,9.0,15.0,-999,0.00,,,0.03,,2013-03-26 11:03:00,
2013-03-26 06:13:00,29.0,-99.9,-100.00,WNW,297,9.0,15.0,-999,0.00,,,0.03,,2013-03-26 11:13:00,
2013-03-26 06:23:00,29.0,-99.9,-100.00,WNW,297,9.0,15.0,-999,0.00,,,0.03,,2013-03-26 11:23:00,
2013-03-26 06:33:00,28.0,-99.9,-100.00,WNW,290,9.0,11.0,-999,0.00,,,0.03,,2013-03-26 11:33:00,
2013-03-26 06:43:00,28.0,-99.9,-100.00,WNW,290,9.0,11.0,-999,0.00,,,0.03,,2013-03-26 11:43:00,
2013-03-26 06:53:00,28.0,-99.9,-100.00,WNW,290,9.0,11.0,-999,0.00,,,0.03,,2013-03-26 11:53:00,
2013-03-26 07:03:00,27.0,-99.9,-100.00,WNW,288,8.0,14.0,-999,0.00,,,0.03,,2013-03-26 12:03:00,
2013-03-26 07:12:00,27.0,-99.9,-100.00,WNW,288,8.0,14.0,-999,0.00,,,0.03,,2013-03-26 12:12:00,
2013-03-26 07:22:00,27.0,-99.9,-100.00,WNW,288,8.0,14.0,-999,0.00,,,0.03,,2013-03-26 12:22:00,
2013-03-26 07:32:00,27.0,-99.9,-100.00,WNW,290,7.0,12.0,-999,0.00,,,0.03,,2013-03-26 12:32:00,
2013-03-26 07:43:00,27.0,-99.9,-100.00,WNW,290,7.0,12.0,-999,0.00,,,0.03,,2013-03-26 12:43:00,
2013-03-26 07:53:00,27.0,-99.9,-100.00,WNW,290,7.0,12.0,-999,0.00,,,0.03,,2013-03-26 12:53:00,
2013-03-26 08:03:00,27.0,-99.9,-100.00,WNW,296,7.0,10.0,-999,0.00,,,0.03,,2013-03-26 13:03:00,
2013-03-26 08:12:00,27.0,-99.9,-100.00,WNW,296,7.0,10.0,-999,0.00,,,0.03,,2013-03-26 13:12:00,
2013-03-26 08:23:00,27.0,-99.9,-100.00,WNW,296,7.0,10.0,-999,0.00,,,0.03,,2013-03-26 13:23:00,
2013-03-26 08:32:00,28.0,-99.9,-100.00,WNW,299,6.0,9.0,-999,0.00,,,0.03,,2013-03-26 13:32:00,
2013-03-26 08:42:00,28.0,-99.9,-100.00,WNW,299,6.0,9.0,-999,0.00,,,0.03,,2013-03-26 13:42:00,
2013-03-26 08:52:00,28.0,-99.9,-100.00,WNW,299,6.0,9.0,-999,0.00,,,0.03,,2013-03-26 13:52:00,
2013-03-26 09:02:00,30.0,-99.9,-100.00,WNW,299,6.0,11.0,-999,0.00,,,0.03,,2013-03-26 14:02:00,
2013-03-26 09:12:00,30.0,-99.9,-100.00,WNW,299,6.0,11.0,-999,0.00,,,0.03,,2013-03-26 14:12:00,
2013-03-26 09:23:00,30.0,-99.9,-100.00,WNW,299,6.0,11.0,-999,0.00,,,0.03,,2013-03-26 14:23:00,
2013-03-26 09:30:00,32.0,-99.9,-100.00,NW,305,7.0,12.0,-999,0.00,,,0.03,,2013-03-26 14:30:00,
2013-03-26 09:33:00,31.0,-99.9,-100.00,NW,309,8.0,16.0,-999,0.00,,,0.03,,2013-03-26 14:33:00,
2013-03-26 09:42:00,31.0,-99.9,-100.00,NW,309,8.0,16.0,-999,0.00,,,0.03,,2013-03-26 14:42:00,
2013-03-26 09:53:00,31.0,-99.9,-100.00,NW,309,8.0,16.0,-999,0.00,,,0.03,,2013-03-26 14:53:00,
2013-03-26 10:02:00,32.0,-99.9,-100.00,NW,305,7.0,12.0,-999,0.00,,,0.03,,2013-03-26 15:02:00,
2013-03-26 10:12:00,32.0,-99.9,-100.00,NW,305,7.0,12.0,-999,0.00,,,0.03,,2013-03-26 15:12:00,
2013-03-26 10:22:00,32.0,-99.9,-100.00,NW,305,7.0,12.0,-999,0.00,,,0.03,,2013-03-26 15:22:00,
2013-03-26 10:43:00,33.0,-99.9,-100.00,WNW,285,7.0,17.0,-999,0.00,,,0.02,,2013-03-26 15:43:00,
2013-03-26 10:53:00,33.0,-99.9,-100.00,WNW,285,7.0,17.0,-999,0.00,,,0.02,,2013-03-26 15:53:00,
2013-03-26 11:03:00,35.0,-99.9,-100.00,WNW,285,4.0,10.0,-999,0.00,,,0.01,,2013-03-26 16:03:00,
2013-03-26 11:13:00,35.0,-99.9,-100.00,WNW,285,4.0,10.0,-999,0.00,,,0.01,,2013-03-26 16:13:00,
2013-03-26 11:23:00,35.0,-99.9,-100.00,WNW,285,4.0,10.0,-999,0.00,,,0.01,,2013-03-26 16:23:00,
2013-03-26 11:33:00,35.0,-99.9,-100.00,WNW,291,4.0,10.0,-999,0.00,,,0.01,,2013-03-26 16:33:00,
2013-03-26 11:43:00,35.0,-99.9,-100.00,WNW,291,4.0,10.0,-999,0.00,,,0.01,,2013-03-26 16:43:00,
2013-03-26 11:54:00,35.0,-99.9,-100.00,WNW,291,4.0,10.0,-999,0.00,,,0.01,,2013-03-26 16:54:00,
2013-03-26 12:03:00,36.0,-99.9,-100.00,WNW,293,5.0,13.0,-999,0.00,,,0.01,,2013-03-26 17:03:00,
2013-03-26 12:12:00,36.0,-99.9,-100.00,WNW,293,5.0,13.0,-999,0.00,,,0.01,,2013-03-26 17:12:00,
2013-03-26 12:23:00,36.0,-99.9,-100.00,WNW,293,5.0,13.0,-999,0.00,,,0.01,,2013-03-26 17:23:00,
2013-03-26 12:30:00,36.0,-99.9,-100.00,West,261,7.0,11.0,-999,0.00,,,0.00,,2013-03-26 17:30:00,
2013-03-26 12:33:00,36.0,-99.9,-100.00,WNW,290,6.0,13.0,-999,0.00,,,0.00,,2013-03-26 17:33:00,
2013-03-26 12:43:00,36.0,-99.9,-100.00,WNW,290,6.0,13.0,-999,0.00,,,0.00,,2013-03-26 17:43:00,
2013-03-26 12:53:00,36.0,-99.9,-100.00,WNW,290,6.0,13.0,-999,0.00,,,0.00,,2013-03-26 17:53:00,
2013-03-26 13:03:00,36.0,-99.9,-100.00,West,261,7.0,11.0,-999,0.00,,,0.00,,2013-03-26 18:03:00,
2013-03-26 13:12:00,36.0,-99.9,-100.00,West,261,7.0,11.0,-999,0.00,,,0.00,,2013-03-26 18:12:00,
2013-03-26 13:23:00,36.0,-99.9,-100.00,West,261,7.0,11.0,-999,0.00,,,0.00,,2013-03-26 18:23:00,
2013-03-26 14:03:00,37.0,-99.9,-100.00,West,264,9.0,13.0,-999,0.00,,,0.00,,2013-03-26 19:03:00,
2013-03-26 14:12:00,37.0,-99.9,-100.00,West,264,9.0,13.0,-999,0.00,,,0.00,,2013-03-26 19:12:00,
2013-03-26 14:23:00,37.0,-99.9,-100.00,West,264,9.0,13.0,-999,0.00,,,0.00,,2013-03-26 19:23:00,
2013-03-26 14:33:00,37.0,-99.9,-100.00,West,263,5.0,10.0,-999,0.00,,,0.00,,2013-03-26 19:33:00,
2013-03-26 14:43:00,37.0,-99.9,-100.00,West,263,5.0,10.0,-999,0.00,,,0.00,,2013-03-26 19:43:00,
2013-03-26 14:53:00,37.0,-99.9,-100.00,West,263,5.0,10.0,-999,0.00,,,0.00,,2013-03-26 19:53:00,
2013-03-26 15:02:00,37.0,-99.9,-100.00,WNW,283,11.0,19.0,-999,0.00,,,0.00,,2013-03-26 20:02:00,
2013-03-26 15:13:00,37.0,-99.9,-100.00,WNW,283,11.0,19.0,-999,0.00,,,0.00,,2013-03-26 20:13:00,
2013-03-26 15:23:00,37.0,-99.9,-100.00,WNW,283,11.0,19.0,-999,0.00,,,0.00,,2013-03-26 20:23:00,
2013-03-26 15:33:00,37.0,-99.9,-100.00,West,274,10.0,18.0,-999,0.00,,,0.00,,2013-03-26 20:33:00,
2013-03-26 15:43:00,37.0,-99.9,-100.00,West,274,10.0,18.0,-999,0.00,,,0.00,,2013-03-26 20:43:00,
2013-03-26 15:53:00,37.0,-99.9,-100.00,West,274,10.0,18.0,-999,0.00,,,0.00,,2013-03-26 20:53:00,
2013-03-26 16:02:00,38.0,-99.9,-100.00,West,268,7.0,14.0,-999,0.00,,,0.00,,2013-03-26 21:02:00,
2013-03-26 16:13:00,38.0,-99.9,-100.00,West,268,7.0,14.0,-999,0.00,,,0.00,,2013-03-26 21:13:00,
2013-03-26 16:23:00,38.0,-99.9,-100.00,West,268,7.0,14.0,-999,0.00,,,0.00,,2013-03-26 21:23:00,
2013-03-26 16:33:00,38.0,-99.9,-100.00,NW,307,8.0,15.0,-999,0.00,,,0.00,,2013-03-26 21:33:00,
2013-03-26 16:43:00,38.0,-99.9,-100.00,NW,307,8.0,15.0,-999,0.00,,,0.00,,2013-03-26 21:43:00,
2013-03-26 16:53:00,38.0,-99.9,-100.00,NW,307,8.0,15.0,-999,0.00,,,0.00,,2013-03-26 21:53:00,
2013-03-26 17:02:00,38.0,-99.9,-100.00,NW,314,12.0,16.0,-999,0.00,,,0.00,,2013-03-26 22:02:00,
2013-03-26 17:12:00,38.0,-99.9,-100.00,NW,314,12.0,16.0,-999,0.00,,,0.00,,2013-03-26 22:12:00,
2013-03-26 17:23:00,38.0,-99.9,-100.00,NW,314,12.0,16.0,-999,0.00,,,0.00,,2013-03-26 22:23:00,
2013-03-26 17:33:00,38.0,-99.9,-100.00,NW,320,7.0,10.0,-999,0.00,,,0.00,,2013-03-26 22:33:00,
2013-03-26 17:43:00,38.0,-99.9,-100.00,NW,320,7.0,10.0,-999,0.00,,,0.00,,2013-03-26 22:43:00,
2013-03-26 17:53:00,38.0,-99.9,-100.00,NW,320,7.0,10.0,-999,0.00,,,0.00,,2013-03-26 22:53:00,
2013-03-26 18:01:00,38.0,-99.9,-100.00,NW,310,8.0,14.0,-999,0.00,,,0.00,,2013-03-26 23:01:00,
2013-03-26 18:11:00,38.0,-99.9,-100.00,NW,310,8.0,14.0,-999,0.00,,,0.00,,2013-03-26 23:11:00,
2013-03-26 18:23:00,38.0,-99.9,-100.00,NW,310,8.0,14.0,-999,0.00,,,0.00,,2013-03-26 23:23:00,
2013-03-26 18:30:00,37.0,-99.9,-100.00,WNW,288,5.0,12.0,-999,0.00,,,0.00,,2013-03-26 23:30:00,
2013-03-26 18:33:00,37.0,-99.9,-100.00,West,279,6.0,11.0,-999,0.00,,,0.00,,2013-03-26 23:33:00,
2013-03-26 18:43:00,37.0,-99.9,-100.00,West,279,6.0,11.0,-999,0.00,,,0.00,,2013-03-26 23:43:00,
2013-03-26 18:53:00,37.0,-99.9,-100.00,West,279,6.0,11.0,-999,0.00,,,0.00,,2013-03-26 23:53:00,
2013-03-26 19:02:00,37.0,-99.9,-100.00,WNW,288,5.0,12.0,-999,0.00,,,0.00,,2013-03-27 00:02:00,
2013-03-26 19:12:00,37.0,-99.9,-100.00,WNW,288,5.0,12.0,-999,0.00,,,0.00,,2013-03-27 00:12:00,
2013-03-26 19:22:00,37.0,-99.9,-100.00,WNW,288,5.0,12.0,-999,0.00,,,0.00,,2013-03-27 00:22:00,
2013-03-26 20:30:00,36.0,-99.9,-100.00,WSW,253,2.0,3.0,-999,0.00,,,0.00,,2013-03-27 01:30:00,
2013-03-26 20:33:00,36.0,-99.9,-100.00,WNW,290,4.0,9.0,-999,0.00,,,0.00,,2013-03-27 01:33:00,
2013-03-26 20:43:00,36.0,-99.9,-100.00,WNW,290,4.0,9.0,-999,0.00,,,0.00,,2013-03-27 01:43:00,
2013-03-26 20:53:00,36.0,-99.9,-100.00,WNW,290,4.0,9.0,-999,0.00,,,0.00,,2013-03-27 01:53:00,
2013-03-26 21:03:00,36.0,-99.9,-100.00,WSW,253,2.0,3.0,-999,0.00,,,0.00,,2013-03-27 02:03:00,
2013-03-26 21:12:00,36.0,-99.9,-100.00,WSW,253,2.0,3.0,-999,0.00,,,0.00,,2013-03-27 02:12:00,
2013-03-26 21:22:00,36.0,-99.9,-100.00,WSW,253,2.0,3.0,-999,0.00,,,0.00,,2013-03-27 02:22:00,
2013-03-26 21:43:00,36.0,-99.9,-100.00,West,270,4.0,7.0,-999,0.00,,,0.00,,2013-03-27 02:43:00,
2013-03-26 21:53:00,36.0,-99.9,-100.00,West,270,4.0,7.0,-999,0.00,,,0.00,,2013-03-27 02:53:00,
2013-03-26 22:02:00,36.0,-99.9,-100.00,WNW,289,3.0,6.0,-999,0.00,,,0.00,,2013-03-27 03:02:00,
2013-03-26 22:12:00,36.0,-99.9,-100.00,WNW,289,3.0,6.0,-999,0.00,,,0.00,,2013-03-27 03:12:00,
2013-03-26 22:22:00,36.0,-99.9,-100.00,WNW,289,3.0,6.0,-999,0.00,,,0.00,,2013-03-27 03:22:00,
2013-03-26 22:33:00,35.0,-99.9,-100.00,West,279,2.0,5.0,-999,0.00,,,0.00,,2013-03-27 03:33:00,
2013-03-26 22:43:00,35.0,-99.9,-100.00,West,279,2.0,5.0,-999,0.00,,,0.00,,2013-03-27 03:43:00,
2013-03-26 22:53:00,35.0,-99.9,-100.00,West,279,2.0,5.0,-999,0.00,,,0.00,,2013-03-27 03:53:00,
2013-03-26 23:03:00,35.0,-99.9,-100.00,WNW,287,4.0,7.0,-999,0.00,,,0.00,,2013-03-27 04:03:00,
2013-03-26 23:14:00,35.0,-99.9,-100.00,WNW,287,4.0,7.0,-999,0.00,,,0.00,,2013-03-27 04:14:00,
2013-03-26 23:23:00,35.0,-99.9,-100.00,WNW,287,4.0,7.0,-999,0.00,,,0.00,,2013-03-27 04:23:00,
2013-03-26 23:33:00,35.0,-99.9,-100.00,WNW,289,5.0,6.0,-999,0.00,,,0.00,,2013-03-27 04:33:00,
2013-03-26 23:43:00,35.0,-99.9,-100.00,WNW,289,5.0,6.0,-999,0.00,,,0.00,,2013-03-27 04:43:00,
2013-03-26 23:53:00,35.0,-99.9,-100.00,WNW,289,5.0,6.0,-999,0.00,,,0.00,,2013-03-27 04:53:00,